Weather History for Los Alamos, NM

Change the Weather History Date:

Monday, August 26, 2013

  Actual Average Record
Temperature  
Mean Temperature 71 °F -  
Max Temperature 81 °F 76 °F 86 °F (1981)
Min Temperature 61 °F 52 °F 47 °F (1987)
Cooling Degree Days 6    
Growing Degree Days 21 (Base 50)    
Moisture  
Dew Point 48 °F    
Average Humidity 46    
Maximum Humidity 68    
Minimum Humidity 23    
Precipitation  
Precipitation 0.00 in - - ()
Sea Level Pressure  
Sea Level Pressure 30.42 in    
Wind  
Wind Speed 6 mph (SSE)    
Max Wind Speed 15 mph    
Max Gust Speed 22 mph    
Visibility 10 miles    
Events      
Averages and records for this station are not official NWS values.
T = Trace of Precipitation, MM = Missing Value Source: NWS Daily Summary

Daily Weather History Graph

Daily Weather History Graph

Search for Another Location

Airport:

Trip Planner

Search our weather history database for the weather conditions in past years. The results will help you decide how hot, cold, wet, or windy it might be!

Date:

Astronomy

Aug. 26, 2013 Rise Set
Actual Time 6:32 AM MDT 7:40 PM MDT
Civil Twilight 6:06 AM MDT 8:06 PM MDT
Nautical Twilight 5:34 AM MDT 8:38 PM MDT
Astronomical Twilight 5:01 AM MDT 9:10 PM MDT
Moon 11:06 PM MDT 12:23 PM MDT
Length of Visible Light 14h 00m
Length of Day
13h 07m
Waning Gibbous, 66% of the Moon is Illuminated
Aug 26
Waning Gibbous
Aug 28
Last Quarter
Sep 5
New
Sep 12
First Quarter
Sep 19
Full

Hourly Weather History & Observations

Time (MDT) Temp. Dew Point Humidity Pressure Visibility Wind Dir Wind Speed Gust Speed Precip Events Conditions
12:15 AM 67.1 °F 52.0 °F 58% 30.45 in 10.0 mi South 3.5 mph - N/A   Overcast
12:35 AM 66.9 °F 52.2 °F 59% 30.45 in 10.0 mi South 6.9 mph - N/A   Mostly Cloudy
12:55 AM 66.6 °F 52.2 °F 60% 30.45 in 10.0 mi South 6.9 mph - N/A   Mostly Cloudy
1:15 AM 66.2 °F 52.2 °F 61% 30.45 in 10.0 mi SSW 4.6 mph - N/A   Mostly Cloudy
1:35 AM 65.3 °F 52.3 °F 63% 30.45 in 10.0 mi SW 4.6 mph - N/A   Scattered Clouds
1:55 AM 65.1 °F 52.3 °F 63% 30.45 in 10.0 mi SW 4.6 mph - N/A   Scattered Clouds
2:15 AM 65.8 °F 52.3 °F 62% 30.45 in 10.0 mi SW 3.5 mph - N/A   Mostly Cloudy
2:35 AM 66.2 °F 52.2 °F 61% 30.45 in 10.0 mi SSW 3.5 mph - N/A   Overcast
2:55 AM 65.7 °F 51.8 °F 61% 30.45 in 10.0 mi Calm Calm - N/A   Mostly Cloudy
3:15 AM 64.9 °F 52.0 °F 63% 30.45 in 10.0 mi SSW 3.5 mph - N/A   Scattered Clouds
3:35 AM 64.4 °F 51.8 °F 64% 30.44 in 10.0 mi SSW 4.6 mph - N/A   Clear
3:55 AM 64.4 °F 51.4 °F 63% 30.44 in 10.0 mi SW 4.6 mph - N/A   Clear
4:15 AM 63.9 °F 51.4 °F 64% 30.44 in 10.0 mi SW 4.6 mph - N/A   Mostly Cloudy
4:35 AM 64.2 °F 51.4 °F 63% 30.44 in 10.0 mi SSW 4.6 mph - N/A   Mostly Cloudy
4:55 AM 63.5 °F 51.3 °F 64% 30.44 in 10.0 mi SW 4.6 mph - N/A   Mostly Cloudy
5:15 AM 64.0 °F 51.3 °F 63% 30.44 in 10.0 mi Calm Calm - N/A   Overcast
5:35 AM 64.4 °F 51.3 °F 62% 30.44 in 10.0 mi SW 3.5 mph - N/A   Mostly Cloudy
5:55 AM 64.0 °F 51.3 °F 63% 30.44 in 10.0 mi Calm Calm - N/A   Scattered Clouds
6:15 AM 63.7 °F 51.3 °F 64% 30.45 in 10.0 mi Calm Calm - N/A   Clear
6:35 AM 63.5 °F 51.1 °F 64% 30.45 in 10.0 mi Calm Calm - N/A   Clear
6:55 AM 62.4 °F 50.9 °F 66% 30.45 in 10.0 mi SSW 3.5 mph - N/A   Clear
7:15 AM 61.9 °F 51.1 °F 68% 30.46 in 10.0 mi South 3.5 mph - N/A   Clear
7:35 AM 63.1 °F 51.3 °F 65% 30.46 in 10.0 mi SW 3.5 mph - N/A   Scattered Clouds
7:55 AM 63.1 °F 51.4 °F 66% 30.46 in 10.0 mi SSW 4.6 mph - N/A   Overcast
8:15 AM 64.4 °F 51.6 °F 63% 30.46 in 10.0 mi Calm Calm - N/A   Mostly Cloudy
8:35 AM 66.2 °F 51.6 °F 59% 30.47 in 10.0 mi SE 3.5 mph - N/A   Scattered Clouds
8:55 AM 66.7 °F 51.8 °F 59% 30.46 in 10.0 mi SE 4.6 mph - N/A   Clear
9:15 AM 67.5 °F 51.8 °F 57% 30.46 in 10.0 mi SE 6.9 mph - N/A   Clear
9:35 AM 68.5 °F 52.2 °F 56% 30.46 in 10.0 mi ESE 6.9 mph - N/A   Clear
9:55 AM 70.0 °F 52.7 °F 54% 30.46 in 10.0 mi East 8.1 mph - N/A   Clear
10:15 AM 71.4 °F 52.5 °F 51% 30.46 in 10.0 mi ESE 8.1 mph - N/A   Clear
10:35 AM 72.3 °F 54.5 °F 53% 30.46 in 10.0 mi ESE 4.6 mph - N/A   Scattered Clouds
10:55 AM 73.4 °F 50.5 °F 45% 30.46 in 10.0 mi SSE 11.5 mph 17.3 mph N/A   Scattered Clouds
11:15 AM 74.5 °F 49.5 °F 41% 30.45 in 10.0 mi ESE 10.4 mph - N/A   Scattered Clouds
11:35 AM 75.2 °F 48.7 °F 39% 30.45 in 10.0 mi SE 9.2 mph - N/A   Scattered Clouds
11:55 AM 75.4 °F 49.5 °F 40% 30.45 in 10.0 mi SSE 9.2 mph 17.3 mph N/A   Scattered Clouds
12:15 PM 76.5 °F 47.8 °F 36% 30.44 in 10.0 mi South 10.4 mph 19.6 mph N/A   Clear
12:35 PM 76.8 °F 47.8 °F 36% 30.43 in 10.0 mi SSE 10.4 mph 19.6 mph N/A   Clear
12:55 PM 77.7 °F 47.5 °F 34% 30.43 in 10.0 mi SE 8.1 mph 16.1 mph N/A   Clear
1:15 PM 77.9 °F 46.6 °F 33% 30.42 in 10.0 mi SE 10.4 mph - N/A   Scattered Clouds
1:35 PM 78.6 °F 45.0 °F 30% 30.41 in 10.0 mi SE 8.1 mph 17.3 mph N/A   Clear
1:55 PM 79.0 °F 45.9 °F 31% 30.41 in 10.0 mi South 11.5 mph 17.3 mph N/A   Scattered Clouds
2:15 PM 79.2 °F 45.5 °F 30% 30.40 in 10.0 mi South 10.4 mph 17.3 mph N/A   Scattered Clouds
2:35 PM 79.3 °F 44.6 °F 29% 30.40 in 10.0 mi South 15.0 mph 21.9 mph N/A   Scattered Clouds
2:55 PM 80.2 °F 43.7 °F 27% 30.39 in 10.0 mi South 9.2 mph 19.6 mph N/A   Clear
3:15 PM 80.1 °F 40.6 °F 25% 30.38 in 10.0 mi SSE 3.5 mph 17.3 mph N/A   Clear
3:35 PM 81.5 °F 43.0 °F 26% 30.37 in 10.0 mi SE 9.2 mph - N/A   Clear
3:55 PM 80.4 °F 41.4 °F 25% 30.37 in 10.0 mi SSE 9.2 mph - N/A   Clear
4:15 PM 80.8 °F 44.6 °F 28% 30.36 in 10.0 mi South 5.8 mph - N/A   Clear
4:35 PM 81.5 °F 44.1 °F 27% 30.35 in 10.0 mi SSE 11.5 mph 19.6 mph N/A   Scattered Clouds
4:55 PM 80.8 °F 41.9 °F 25% 30.34 in 10.0 mi South 11.5 mph 19.6 mph N/A   Clear
5:15 PM 80.8 °F 41.5 °F 25% 30.35 in 10.0 mi SE 6.9 mph 10.4 mph N/A   Scattered Clouds
5:35 PM 80.2 °F 39.6 °F 23% 30.35 in 10.0 mi SE 9.2 mph 17.3 mph N/A   Overcast
5:55 PM 80.6 °F 40.1 °F 24% 30.35 in 10.0 mi ESE 8.1 mph - N/A   Overcast
6:15 PM 79.7 °F 46.2 °F 31% 30.34 in 10.0 mi ESE 11.5 mph 18.4 mph N/A   Overcast
6:35 PM 78.4 °F 45.7 °F 31% 30.35 in 10.0 mi SE 10.4 mph 19.6 mph N/A   Mostly Cloudy
6:55 PM 77.9 °F 45.5 °F 32% 30.35 in 10.0 mi SSE 11.5 mph - N/A   Mostly Cloudy
7:15 PM 77.5 °F 45.5 °F 32% 30.35 in 10.0 mi SE 11.5 mph - N/A   Mostly Cloudy
7:35 PM 76.6 °F 46.0 °F 34% 30.36 in 10.0 mi SSE 6.9 mph - N/A   Overcast
7:55 PM 76.1 °F 46.8 °F 35% 30.36 in 10.0 mi SSE 10.4 mph - N/A   Overcast
8:15 PM 75.7 °F 45.9 °F 35% 30.36 in 10.0 mi SSE 6.9 mph - N/A   Mostly Cloudy
8:35 PM 75.2 °F 46.0 °F 35% 30.36 in 10.0 mi South 9.2 mph - N/A   Overcast
8:55 PM 74.7 °F 46.8 °F 37% 30.37 in 10.0 mi South 6.9 mph - N/A   Overcast
9:15 PM 74.3 °F 47.5 °F 39% 30.37 in 10.0 mi South 8.1 mph - N/A   Overcast
9:35 PM 73.6 °F 47.7 °F 40% 30.38 in 10.0 mi South 9.2 mph - N/A   Scattered Clouds
9:55 PM 72.7 °F 47.5 °F 41% 30.39 in 10.0 mi SSE 8.1 mph - N/A   Clear
10:15 PM 72.1 °F 48.2 °F 43% 30.40 in 10.0 mi South 6.9 mph - N/A   Clear
10:35 PM 71.6 °F 46.9 °F 41% 30.40 in 10.0 mi South 8.1 mph - N/A   Clear
10:55 PM 70.9 °F 46.4 °F 42% 30.40 in 10.0 mi South 9.2 mph - N/A   Clear
11:15 PM 70.2 °F 46.4 °F 43% 30.40 in 10.0 mi South 6.9 mph - N/A   Clear
11:35 PM 69.1 °F 47.5 °F 46% 30.40 in 10.0 mi South 5.8 mph - N/A   Clear
11:55 PM 68.9 °F 46.2 °F 44% 30.40 in 10.0 mi South 6.9 mph - N/A   Clear